Weather History for Henderson, KY

Change the Weather History Date:

Wednesday, September 5, 2012

  Actual Average Record
Temperature  
Mean Temperature 80 °F -  
Max Temperature 91 °F 83 °F 104 °F (1954)
Min Temperature 66 °F 61 °F 42 °F (2010)
Cooling Degree Days 14    
Growing Degree Days 30 (Base 50)    
Moisture  
Dew Point 64 °F    
Average Humidity 68    
Maximum Humidity 78    
Minimum Humidity 49    
Precipitation  
Precipitation 0.00 in - - ()
Sea Level Pressure  
Sea Level Pressure 29.85 in    
Wind  
Wind Speed 3 mph (SE)    
Max Wind Speed 20 mph    
Max Gust Speed 31 mph    
Visibility 9 miles    
Events Thunderstorm    
Averages and records for this station are not official NWS values.
T = Trace of Precipitation, MM = Missing Value Source: NWS Daily Summary

Daily Weather History Graph

Daily Weather History Graph

Search for Another Location

Airport:

Trip Planner

Search our weather history database for the weather conditions in past years. The results will help you decide how hot, cold, wet, or windy it might be!

Date:

Astronomy

Sep. 05, 2012 Rise Set
Actual Time 6:24 AM CDT 7:13 PM CDT
Civil Twilight 5:57 AM CDT 7:39 PM CDT
Nautical Twilight 5:26 AM CDT 8:11 PM CDT
Astronomical Twilight 4:53 AM CDT 8:43 PM CDT
Moon 9:49 PM CDT (9/5) 11:21 AM CDT (9/5)
Length of Visible Light 13h 41m
Length of Day
12h 48m
Waning Gibbous, 76% of the Moon is Illuminated
Sep 5
Waning Gibbous
Sep 8
Last Quarter
Sep 15
New
Sep 22
First Quarter
Sep 29
Full

Hourly Weather History & Observations

Time (CDT) Temp. Heat Index Dew Point Humidity Pressure Visibility Wind Dir Wind Speed Gust Speed Precip Events Conditions
12:15 AM 73.4 °F - 64.4 °F 73% 29.85 in 10.0 mi Calm Calm - N/A   Clear
12:35 AM 73.4 °F - 64.4 °F 73% 29.85 in 10.0 mi Calm Calm - N/A   Clear
12:55 AM 73.4 °F - 64.4 °F 73% 29.85 in 10.0 mi Calm Calm - N/A   Clear
1:15 AM 71.6 °F - 64.4 °F 78% 29.85 in 8.0 mi Calm Calm - N/A   Clear
1:35 AM 71.6 °F - 64.4 °F 78% 29.85 in 8.0 mi Calm Calm - N/A   Clear
1:55 AM 71.6 °F - 64.4 °F 78% 29.84 in 7.0 mi Calm Calm - N/A   Clear
2:15 AM 71.6 °F - 62.6 °F 73% 29.84 in 8.0 mi Calm Calm - N/A   Clear
2:35 AM 71.6 °F - 64.4 °F 78% 29.84 in 10.0 mi Calm Calm - N/A   Clear
2:55 AM 71.6 °F - 64.4 °F 78% 29.84 in 10.0 mi Calm Calm - N/A   Clear
3:15 AM 71.6 °F - 62.6 °F 73% 29.85 in 10.0 mi Calm Calm - N/A   Clear
3:35 AM 71.6 °F - 64.4 °F 78% 29.85 in 8.0 mi Calm Calm - N/A   Clear
3:55 AM 71.6 °F - 62.6 °F 73% 29.85 in 6.0 mi Calm Calm - N/A   Clear
4:15 AM 71.6 °F - 62.6 °F 73% 29.85 in 7.0 mi Calm Calm - N/A   Clear
4:35 AM 71.6 °F - 62.6 °F 73% 29.85 in 5.0 mi Calm Calm - N/A   Clear
4:55 AM 71.6 °F - 62.6 °F 73% 29.85 in 7.0 mi Calm Calm - N/A   Clear
5:15 AM 69.8 °F - 62.6 °F 78% 29.86 in 6.0 mi Calm Calm - N/A   Clear
5:35 AM 69.8 °F - 62.6 °F 78% 29.87 in 5.0 mi Calm Calm - N/A   Clear
5:55 AM 69.8 °F - 62.6 °F 78% 29.86 in 7.0 mi Calm Calm - N/A   Clear
6:15 AM 69.8 °F - 62.6 °F 78% 29.86 in 5.0 mi Calm Calm - N/A   Clear
6:35 AM 69.8 °F - 62.6 °F 78% 29.87 in 5.0 mi Calm Calm - N/A   Clear
6:55 AM 71.6 °F - 62.6 °F 73% 29.88 in 5.0 mi Calm Calm - N/A   Clear
7:15 AM 73.4 °F - 64.4 °F 73% 29.88 in 5.0 mi Calm Calm - N/A   Clear
7:35 AM 73.4 °F - 66.2 °F 78% 29.88 in 9.0 mi Calm Calm - N/A   Mostly Cloudy
7:55 AM 75.2 °F - 66.2 °F 73% 29.88 in 10.0 mi South 4.6 mph - N/A   Partly Cloudy
8:15 AM 78.8 °F - 68.0 °F 69% 29.87 in 10.0 mi SSW 5.8 mph - N/A   Clear
8:35 AM 82.4 °F 86.3 °F 69.8 °F 66% 29.86 in 9.0 mi SSW 5.8 mph - N/A   Clear
8:55 AM 84.2 °F 88.4 °F 69.8 °F 62% 29.85 in 10.0 mi SSW 8.1 mph - N/A   Clear
9:15 AM 84.2 °F 88.4 °F 69.8 °F 62% 29.85 in 10.0 mi SSW 8.1 mph - N/A   Clear
9:35 AM 84.2 °F 88.4 °F 69.8 °F 62% 29.86 in 10.0 mi SSW 6.9 mph - N/A   Clear
10:15 AM 84.2 °F 88.4 °F 69.8 °F 62% 29.86 in 10.0 mi SSW 8.1 mph - N/A   Clear
10:35 AM 86.0 °F 90.4 °F 69.8 °F 58% 29.85 in 10.0 mi South 5.8 mph - N/A   Clear
10:55 AM 87.8 °F 91.4 °F 68.0 °F 52% 29.85 in 10.0 mi SSW 9.2 mph - N/A   Clear
11:15 AM 89.6 °F 94.7 °F 69.8 °F 52% 29.85 in 10.0 mi SSW 10.4 mph - N/A   Clear
11:35 AM 89.6 °F 94.7 °F 69.8 °F 52% 29.86 in 10.0 mi SSW 9.2 mph - N/A   Clear
11:55 AM 89.6 °F 94.7 °F 69.8 °F 52% 29.86 in 10.0 mi SSW 6.9 mph - N/A   Clear
12:15 PM 91.4 °F 96.8 °F 69.8 °F 49% 29.85 in 10.0 mi South 8.1 mph - N/A   Partly Cloudy
12:35 PM 89.6 °F 94.7 °F 69.8 °F 52% 29.85 in 10.0 mi SSW 9.2 mph - N/A   Scattered Clouds
12:55 PM 87.8 °F 92.6 °F 69.8 °F 55% 29.84 in 10.0 mi SW 6.9 mph - N/A   Mostly Cloudy
1:15 PM 87.8 °F 92.6 °F 69.8 °F 55% 29.87 in 10.0 mi NNW 19.6 mph 31.1 mph N/A   Mostly Cloudy
1:35 PM 75.2 °F - 62.6 °F 65% 29.89 in 10.0 mi North 17.3 mph 27.6 mph N/A Thunderstorm Mostly Cloudy
1:55 PM 73.4 °F - 62.6 °F 69% 29.89 in 10.0 mi NNE 16.1 mph 23.0 mph N/A Thunderstorm Thunderstorm
2:15 PM 75.2 °F - 62.6 °F 65% 29.87 in 10.0 mi NNE 17.3 mph 24.2 mph N/A Thunderstorm Partly Cloudy
2:35 PM 75.2 °F - 62.6 °F 65% 29.87 in 10.0 mi NNE 12.7 mph 20.7 mph N/A   Partly Cloudy
2:55 PM 75.2 °F - 62.6 °F 65% 29.86 in 10.0 mi NNE 9.2 mph - N/A   Partly Cloudy
3:15 PM 75.2 °F - 62.6 °F 65% 29.86 in 10.0 mi ENE 5.8 mph - N/A   Partly Cloudy
3:35 PM 75.2 °F - 62.6 °F 65% 29.84 in 10.0 mi ENE 3.5 mph - N/A   Mostly Cloudy
3:55 PM 77.0 °F - 62.6 °F 61% 29.81 in 10.0 mi East 4.6 mph - N/A   Mostly Cloudy
4:15 PM 78.8 °F - 62.6 °F 57% 29.83 in 10.0 mi East 6.9 mph - N/A   Mostly Cloudy
4:35 PM 80.6 °F 81.8 °F 62.6 °F 54% 29.82 in 10.0 mi East 8.1 mph - N/A   Partly Cloudy
4:55 PM 78.8 °F - 62.6 °F 57% 29.81 in 10.0 mi ESE 6.9 mph - N/A   Partly Cloudy
5:15 PM 78.8 °F - 62.6 °F 57% 29.80 in 10.0 mi SE 8.1 mph - N/A   Clear
5:35 PM 78.8 °F - 62.6 °F 57% 29.79 in 10.0 mi SE 8.1 mph - N/A   Clear
5:55 PM 78.8 °F - 64.4 °F 61% 29.80 in 10.0 mi SSE 5.8 mph - N/A   Clear
6:15 PM 78.8 °F - 64.4 °F 61% 29.82 in 10.0 mi South 4.6 mph - N/A   Clear
6:35 PM 77.0 °F - 62.6 °F 61% 29.82 in 10.0 mi South 4.6 mph - N/A   Clear
6:55 PM 75.2 °F - 62.6 °F 65% 29.83 in 10.0 mi SE 3.5 mph - N/A   Clear
7:15 PM 75.2 °F - 62.6 °F 65% 29.84 in 10.0 mi East 3.5 mph - N/A   Clear
7:35 PM 73.4 °F - 62.6 °F 69% 29.85 in 10.0 mi Calm Calm - N/A   Clear
7:55 PM 73.4 °F - 62.6 °F 69% 29.85 in 10.0 mi Calm Calm - N/A   Clear
8:15 PM 71.6 °F - 62.6 °F 73% 29.86 in 10.0 mi ENE 4.6 mph - N/A   Clear
8:35 PM 71.6 °F - 62.6 °F 73% 29.87 in 10.0 mi ESE 3.5 mph - N/A   Clear
8:55 PM 71.6 °F - 62.6 °F 73% 29.87 in 10.0 mi ESE 5.8 mph - N/A   Clear
9:15 PM 71.6 °F - 62.6 °F 73% 29.87 in 10.0 mi ENE 5.8 mph - N/A   Clear
9:35 PM 71.6 °F - 62.6 °F 73% 29.88 in 10.0 mi ESE 3.5 mph - N/A   Clear
9:55 PM 71.6 °F - 62.6 °F 73% 29.88 in 10.0 mi East 3.5 mph - N/A   Clear
10:15 PM 69.8 °F - 60.8 °F 73% 29.89 in 10.0 mi South 4.6 mph - N/A   Clear
10:35 PM 69.8 °F - 60.8 °F 73% 29.89 in 10.0 mi Calm Calm - N/A   Clear
10:55 PM 69.8 °F - 60.8 °F 73% 29.89 in 10.0 mi Calm Calm - N/A   Clear
11:15 PM 68.0 °F - 60.8 °F 78% 29.89 in 9.0 mi Calm Calm - N/A   Clear
11:35 PM 69.8 °F - 60.8 °F 73% 29.89 in 10.0 mi Calm Calm - N/A   Clear
11:55 PM 66.2 °F - 59.0 °F 78% 29.89 in 9.0 mi Calm Calm - N/A   Clear